CFG16 EDDF-VRMM

Flight info

Callsign CFG16
Flight time N/A
Altitude 33000
Route CINDY8S/18 CINDY Z74 LAMPU DCT NOMBO Y161 MAH L173 OTT M867 RADIZ DCT PENEP DCT RASTU DCT GLOMY DCT INLOT DCT PINDO DCT PIKOS UL607 ATV DCT PAXIS Y707 OBRAN L321 REXUM M872 PMA Y214 RAPMA DCT ULONO DCT DAPOL L692 GISKA N569 GOLNI P570 KITAL L894 LELEM LELEM2A
Aircraft A339/H-SADE1E2E3GHIJ3J5M1P2RWXY/LB2D1

Departure

Time 2026-05-06 13:23
Airport Frankfurt Main Airport (EDDF)

Arrival

Time N/A
Airport Velana International Airport (VRMM)
Time Latitude Longitude Altitude Speed Heading
2026-05-06 12:48 50.04653 8.57055 357 ft 0 kts 91°
2026-05-06 12:50 50.04653 8.57048 358 ft 0 kts 91°
2026-05-06 12:53 50.04653 8.57056 351 ft 0 kts 91°
2026-05-06 12:54 50.04653 8.57050 351 ft 0 kts 91°
2026-05-06 12:54 50.04653 8.57060 351 ft 0 kts 91°
2026-05-06 13:06 50.04653 8.57059 351 ft 0 kts 91°
2026-05-06 13:08 50.04653 8.57055 351 ft 1 kts 91°
2026-05-06 13:08 50.04653 8.57049 351 ft 4 kts 91°
2026-05-06 13:08 50.04649 8.56996 358 ft 9 kts 61°
2026-05-06 13:08 50.04633 8.56949 360 ft 5 kts 126°
2026-05-06 13:09 50.04645 8.56926 360 ft 1 kts 193°
2026-05-06 13:09 50.04644 8.56926 360 ft 0 kts 195°
2026-05-06 13:13 50.04633 8.56921 361 ft 6 kts 195°
2026-05-06 13:13 50.04585 8.56899 358 ft 7 kts 194°
2026-05-06 13:14 50.04534 8.56881 351 ft 8 kts 192°
2026-05-06 13:14 50.04481 8.56862 354 ft 8 kts 195°
2026-05-06 13:14 50.04453 8.56831 361 ft 7 kts 225°
2026-05-06 13:14 50.04437 8.56769 358 ft 6 kts 248°
2026-05-06 13:15 50.04419 8.56690 354 ft 10 kts 251°
2026-05-06 13:15 50.04387 8.56563 358 ft 15 kts 246°
2026-05-06 13:15 50.04350 8.56396 355 ft 19 kts 251°
2026-05-06 13:15 50.04300 8.56189 356 ft 22 kts 248°
2026-05-06 13:16 50.04242 8.55953 356 ft 24 kts 249°
2026-05-06 13:16 50.04185 8.55717 356 ft 23 kts 250°
2026-05-06 13:16 50.04129 8.55480 353 ft 23 kts 250°
2026-05-06 13:16 50.04075 8.55242 356 ft 23 kts 250°
2026-05-06 13:17 50.04017 8.55005 359 ft 23 kts 248°
2026-05-06 13:17 50.03954 8.54772 355 ft 23 kts 249°
2026-05-06 13:17 50.03904 8.54530 356 ft 23 kts 251°
2026-05-06 13:17 50.03834 8.54308 361 ft 23 kts 233°
2026-05-06 13:18 50.03768 8.54085 354 ft 23 kts 249°
2026-05-06 13:18 50.03708 8.53858 359 ft 23 kts 251°
2026-05-06 13:18 50.03658 8.53624 356 ft 23 kts 249°
2026-05-06 13:18 50.03599 8.53395 358 ft 22 kts 249°
2026-05-06 13:19 50.03548 8.53174 360 ft 21 kts 249°
2026-05-06 13:19 50.03496 8.52970 358 ft 20 kts 249°
2026-05-06 13:19 50.03447 8.52779 358 ft 18 kts 248°
2026-05-06 13:19 50.03390 8.52612 354 ft 17 kts 225°
2026-05-06 13:20 50.03352 8.52595 356 ft 0 kts 184°
2026-05-06 13:22 50.03343 8.52595 357 ft 9 kts 183°
2026-05-06 13:22 50.02998 8.52589 351 ft 89 kts 181°
2026-05-06 13:23 50.02151 8.52596 351 ft 152 kts 180°
2026-05-06 13:23 50.00952 8.52609 496 ft 185 kts 181°
2026-05-06 13:23 49.99692 8.52650 1023 ft 181 kts 180°
2026-05-06 13:23 49.98440 8.52702 1415 ft 181 kts 181°
2026-05-06 13:24 49.97138 8.52999 1726 ft 202 kts 160°
2026-05-06 13:24 49.95966 8.54367 2059 ft 225 kts 128°
2026-05-06 13:24 49.95194 8.56544 2547 ft 233 kts 119°
2026-05-06 13:24 49.94461 8.58797 3137 ft 236 kts 117°
2026-05-06 13:25 49.94004 8.61261 3779 ft 239 kts 99°
2026-05-06 13:25 49.93909 8.63895 4190 ft 252 kts 94°
2026-05-06 13:25 49.93837 8.66708 4372 ft 269 kts 95°
2026-05-06 13:25 49.93400 8.69556 4766 ft 273 kts 118°
2026-05-06 13:26 49.92343 8.71974 5292 ft 272 kts 138°
2026-05-06 13:26 49.90841 8.73712 5916 ft 269 kts 152°
2026-05-06 13:26 49.89207 8.75164 6434 ft 274 kts 148°
2026-05-06 13:26 49.87834 8.77182 6959 ft 280 kts 128°
2026-05-06 13:27 49.85046 8.84901 8604 ft 290 kts 121°
2026-05-06 13:27 49.82690 8.91389 9957 ft 296 kts 122°
2026-05-06 13:27 49.80550 8.97246 10312 ft 329 kts 122°
2026-05-06 13:27 49.78237 9.03581 11009 ft 345 kts 121°
2026-05-06 13:28 49.76198 9.10343 12077 ft 351 kts 112°